Portada
METAR-TAF:

METAR-TAF

Aeroports :

Arauca, Colòmbia

latitud: 07-04N, longitud: 070-44W, altitud: 128 m

Observació

L'informe es va fer fa 53 minuts, a les 19:00 UTC
Vent 3 kt del Est/Nord-Est
Temperatura 32°C
Humitat 63%
Pressió 1007 hPa
Visibilitat 10 km o més
Núvols disperses a una alçada de 1500 ft

METAR: SKUC 181900Z 07003KT 9999 SCT015 32/24 A2974

Hora: 14:53 (19:53 UTC)


TAF: manca

Observacions i pronòstics meteorològics de més de 4000 aeroports (METAR i TAF).

Les estacions disponibles són els punts grocs i vermells al mapa.

Posi el ratolí al punt desitjat per veure el nom de l'estació.

Feu clic per veure les observacions i els pronòstics meteorològics.

Per canviar el mapa: feu clic els botons verds amb una creu de color negre per apropar; al botó verd amb un guió per allunyar la imatge; o en les fletxes verdes per a mapes adjacents.


METAR-TAF: